This is the latest recevied weather packets stored in our database for station/object KC1TEM-13. If no packets are shown the sender has not sent any weather packets the latest 10 day(s).
| Time | Temp. | Humidity | Pressure | Rain* | Wind** | Luminosity | Snow |
|---|---|---|---|---|---|---|---|
| 1777986230 | 18.89° C | 53% | 1009.7 hPa | 0 mm | - | 338 W/m² | - |
| 1777985927 | 18.89° C | 54% | 1009.5 hPa | 0 mm | - | 196 W/m² | - |
| 1777985625 | 18.33° C | 55% | 1009.7 hPa | 0 mm | - | 389 W/m² | - |
| 1777985320 | 17.78° C | 56% | 1009.8 hPa | 0 mm | - | 394 W/m² | - |
| 1777985017 | 17.78° C | 55% | 1009.9 hPa | 0 mm | - | 423 W/m² | - |
| 1777984713 | 17.22° C | 56% | 1009.4 hPa | 0 mm | - | 294 W/m² | - |
| 1777984410 | 17.22° C | 55% | 1009.5 hPa | 0 mm | - | 178 W/m² | - |
| 1777984106 | 17.78° C | 54% | 1009.6 hPa | 0 mm | - | 197 W/m² | - |
| 1777983804 | 17.78° C | 55% | 1009.8 hPa | 0 mm | - | 385 W/m² | - |
| 1777983500 | 17.78° C | 56% | 1009.6 hPa | 0 mm | - | 205 W/m² | - |
| 1777983197 | 16.67° C | 57% | 1009.6 hPa | 0 mm | - | 258 W/m² | - |
| 1777982893 | 16.67° C | 58% | 1009.5 hPa | 0 mm | - | 105 W/m² | - |
| 1777982589 | 16.67° C | 57% | 1009.3 hPa | 0 mm | - | 90 W/m² | - |
| 1777982288 | 16.67° C | 57% | 1009.3 hPa | 0 mm | - | 256 W/m² | - |
| 1777981986 | 16.67° C | 58% | 1009.4 hPa | 0 mm | - | 265 W/m² | - |
| 1777981683 | 16.11° C | 59% | 1009.7 hPa | 0 mm | - | 290 W/m² | - |
| 1777981380 | 15.56° C | 60% | 1009.5 hPa | 0 mm | - | 237 W/m² | - |
| 1777981076 | 15.56° C | 59% | 1009.6 hPa | 0 mm | - | 113 W/m² | - |
| 1777980773 | 16.11° C | 59% | 1009.5 hPa | 0 mm | - | 257 W/m² | - |
| 1777980468 | 15.56° C | 60% | 1009.5 hPa | 0 mm | - | 260 W/m² | - |
| 1777980167 | 15° C | 61% | 1009.7 hPa | 0 mm | - | 213 W/m² | - |
| 1777979867 | 15° C | 62% | 1009.7 hPa | 0 mm | - | 188 W/m² | - |
| 1777979563 | 14.44° C | 63% | 1009.5 hPa | 0 mm | - | 113 W/m² | - |
| 1777979259 | 13.89° C | 64% | 1009.6 hPa | 0 mm | - | 69 W/m² | - |
| 1777978957 | 13.89° C | 65% | 1009.5 hPa | 0 mm | - | 61 W/m² | - |
* Rain latest hour (hover to see other rain measurements)
** Current wind speed in m/s (hover to see current wind gust speed)